KDCA

Ronald Reagan Washington National

Airport
ICAO code
KDCA
IATA Code
DCA
Summary
ICAO Region
NAM
ICAO Territory
Location

Washington, D.C., Arlington County, Virginia, District of Colombia

Serving
Washington D.C.
Elevation
15 ft
Coordinates
38° 51' 7" N , 77° 2' 15" W
KCC
Metar
KDCA 151852Z 17005KT 10SM FEW065 SCT090 SCT120 BKN250 26/12 A2982 RMK AO2 LTG DSNT W AND NW SLP096 VIRGA NE CB W-NW MOV SE T02610117

Description

Ronald Reagan Washington National Airport (IATA: DCA) is a public airport located 4.8 km south of downtown Washington, D.C., in Arlington County, Virginia.

Climatology

Humid “subtropical” climate (Köppen climate classification Cfa) - characterized by hot, humid summers and cool winters. Significant amounts of precipitation occur in all seasons in most areas. Winter rainfall (and sometimes snowfall) is associated with large storms that the westerlies steer from west to east. Most summer rainfall occurs during thunderstorms and occasional tropical storms (hurricanes).

Airport map

Aerial View

SKYbrary Partners:

Safety knowledge contributed by: